Location: Invercargill
(46.4000°S, 168.3500°E)
Time: 09:29:07
(UTC+12:00)

Atlas Centaur 2 - Pass Details

Date: 14 May 2021
Orbit: 459 x 1309 km, 30.4° (Epoch: 15 June)

Event Time Altitude Azimuth Distance (km) Brightness Sun altitude
Rises 19:42:58 0° 297° (WNW) 3,292 6.4 -23.7°
Reaches altitude 10° 19:46:12 10° 317° (NW) 2,532 5.2 -24.2°
Maximum altitude 19:49:58 17° 355° (N) 2,262 4.5 -24.9°
Enters shadow 19:52:48 13° 22° (NNE) 2,613 4.5 -25.4°
